FW4136 Weather Reports


time (UTC)temp
C
wind
direction
speed
KPH
gust
KPH
rain 1hr
cm
rain 24hr
cm
rain mn
cm
humidity
%
barometer
mb
20260509193017 17 184 14.5 30.6 0.00 0.00 0.00 50 1003.7
20260509183114 18 206 12.9 24.1 0.00 0.00 0.00 49 1004.5
20260509174659 17 184 11.3 19.3 0.00 0.00 0.00 50 1004.6
20260509164700 17 216 9.7 19.3 0.00 0.00 0.00 53 1005.4
20260509141546 15 240 9.7 20.9 0.00 0.00 0.00 62 1006.7
20260509140110 14 222 6.4 16.1 0.00 0.00 0.00 62 1006.9
20260509123150 11 148 9.7 17.7 0.00 0.00 0.00 65 1007.3
20260509113011 8 150 6.4 11.3 0.00 0.05 0.00 66 1007.5
20260509091636 6 158 6.4 11.3 0.00 0.05 0.00 61 1007.7
20260509083013 5 162 8.0 12.9 0.00 0.05 0.00 60 1007.8
20260509073033 5 163 8.0 9.7 0.00 0.05 0.00 59 1008.2
20260509063022 6 150 9.7 12.9 0.00 0.05 0.00 55 1008.7
20260509053043 6 157 6.4 9.7 0.00 0.05 0.00 52 1009.1
20260509043110 5 163 6.4 11.3 0.00 0.05 0.00 51 1009.8
20260509033126 6 161 8.0 9.7 0.00 0.05 0.05 47 1010.2
20260509023137 6 173 9.7 12.9 0.00 0.05 0.05 52 1010.5
20260509003028 10 186 6.4 11.3 0.00 0.13 0.05 41 1010.2
20260508224654 13 158 6.4 12.9 0.00 0.13 0.05 38 1009.7
20260508213105 13 193 9.7 14.5 0.00 0.13 0.05 40 1010.1
20260508203059 10 55 4.8 6.4 0.00 0.13 0.05 55 1010.3